This is the latest recevied weather packets stored in our database for station/object KM4KMS. If no packets are shown the sender has not sent any weather packets the latest 10 day(s).
| Time | Temp. | Humidity | Pressure | Rain* | Wind** | Luminosity | Snow |
|---|---|---|---|---|---|---|---|
| 1778013133 | 17.22° C | 89% | 1007.6 hPa | 0 mm | - | 45 W/m² | - |
| 1778012828 | 17.22° C | 89% | 1007.7 hPa | 0 mm | - | 46 W/m² | - |
| 1778012525 | 17.22° C | 87% | 1007.8 hPa | 0 mm | - | 66 W/m² | - |
| 1778012221 | 17.22° C | 88% | 1007.8 hPa | 0 mm | - | 60 W/m² | - |
| 1778011919 | 17.22° C | 89% | 1007.9 hPa | 1.27 mm | - | 51 W/m² | - |
| 1778011617 | 17.22° C | 89% | 1007.9 hPa | 4.32 mm | - | 43 W/m² | - |
| 1778011314 | 17.78° C | 87% | 1008.1 hPa | 4.83 mm | - | 47 W/m² | - |
| 1778011009 | 17.78° C | 85% | 1008.3 hPa | 1.78 mm | - | 52 W/m² | - |
| 1778010707 | 17.78° C | 84% | 1008.3 hPa | 1.27 mm | - | 34 W/m² | - |
| 1778010404 | 18.33° C | 81% | 1008.2 hPa | 0 mm | - | 70 W/m² | - |
| 1778010100 | 18.33° C | 79% | 1008.4 hPa | 0 mm | - | 52 W/m² | - |
| 1778009797 | 18.89° C | 79% | 1008.3 hPa | 0 mm | - | 67 W/m² | - |
| 1778009494 | 18.89° C | 80% | 1008.2 hPa | 0 mm | - | 76 W/m² | - |
| 1778009193 | 19.44° C | 77% | 1008.3 hPa | 0 mm | - | 67 W/m² | - |
| 1778008889 | 19.44° C | 75% | 1008 hPa | 0 mm | - | 65 W/m² | - |
| 1778008588 | 20° C | 74% | 1008 hPa | 0 mm | - | 65 W/m² | - |
| 1778008286 | 20° C | 72% | 1007.9 hPa | 0 mm | - | 78 W/m² | - |
| 1778007981 | 20.56° C | 70% | 1008 hPa | 0 mm | - | 100 W/m² | - |
| 1778007676 | 20.56° C | 70% | 1008.3 hPa | 0 mm | - | 111 W/m² | - |
| 1778007373 | 20.56° C | 70% | 1008.2 hPa | 0 mm | - | 115 W/m² | - |
| 1778007069 | 20.56° C | 71% | 1008.3 hPa | 0 mm | - | 129 W/m² | - |
| 1778006766 | 20.56° C | 70% | 1008.4 hPa | 0 mm | - | 95 W/m² | - |
| 1778006463 | 20.56° C | 69% | 1008.6 hPa | 0 mm | - | 129 W/m² | - |
| 1778006160 | 20.56° C | 70% | 1008.5 hPa | 0 mm | - | 115 W/m² | - |
| 1778005857 | 20.56° C | 69% | 1008.3 hPa | 0 mm | - | 134 W/m² | - |
* Rain latest hour (hover to see other rain measurements)
** Current wind speed in m/s (hover to see current wind gust speed)